Location: Central Springs Elementary School at Manly
(43.2859°N, 93.1959°W)
Time: 11:42:28
(UTC+00:00)

Tiangong - Visible Passes

Search period start: 10 October 2024 00:00
Search period end: 20 October 2024 00:00
Orbit: 373 x 377 km, 41.5° (Epoch: 10 October)

Date Brightness Start Highest point End Pass type
(mag) Time Alt. Az. Time Alt. Az. Time Alt. Az.
16 Oct 0.6 11:53:30 10° SSW 11:55:30 16° SSE 11:57:32 10° ESE visible
18 Oct -0.1 11:22:47 10° SSW 11:25:16 22° SSE 11:27:47 10° ESE visible
19 Oct 0.6 10:22:32 14° SE 10:22:32 14° SE 10:23:46 10° ESE visible
19 Oct -1.2 11:55:12 10° WSW 11:58:10 43° SSE 12:01:08 10° E visible
